Regional Weather Roundup
Issued by NWS

Home | Current Version | Previous Version | Text Only | Print | Product List | Glossary On
Versions: 1 2 3 4 5 6 7 8 9 10 11 12 13 14 15 16 17 18 19 20 21 22 23 24 25 26 27 28 29 30 31 32 33 34 35 36 37 38 39 40 41 42 43 44 45 46 47 48 49 50
000
ASPQ40 PGUM 040914
RWRPQ
WEATHER ROUNDUP FOR THE MARIANAS AND MICRONESIA
NATIONAL WEATHER SERVICE TIYAN GU
700 PM CHST TUE AUG 04 2015

GUZ001>004-041000-
MARIANA ISLANDS-

CITY           SKY/WX    TMP DP  RH WIND       PRES   REMARKS
GUAM AIRPORT   LGT RAIN  81  79  94 SW3       29.67R
ANDERSEN AFB   PTCLDY    81  77  89 SW15      29.68R
ROTA AIRPORT   NOT AVBL
TINIAN AP      NOT AVBL
SAIPAN AP      NOT AVBL

$$

PMZ161-041000-
REPUBLIC OF PALAU-

CITY           SKY/WX    TMP DP  RH WIND       PRES   REMARKS
KOROR AP       LGT RAIN  77  75  94 W18G29    29.72S
KOROR WSO      LGT RAIN  79  75  89 W14       29.72S

$$

PMZ171>174-041000-
FEDERATED STATES OF MICRONESIA-

CITY           SKY/WX    TMP DP  RH WIND       PRES   REMARKS
YAP AIRPORT    CLOUDY    82  77  83 SW15G22   29.63R HX  91
CHUUK AP       CLOUDY    82  73  74 W9        29.74S
POHNPEI AP     NOT AVBL
POHNPEI WSO    CLOUDY    77  75  94 SE2       29.78S
KOSRAE AP      NOT AVBL

$$

PMZ181-041000-
REPUBLIC OF THE MARSHALL ISLANDS-

CITY           SKY/WX    TMP DP  RH WIND       PRES   REMARKS
KWAJALEIN AP   CLEAR     82  72  69 E8        29.76R
MAJURO AP      NOT AVBL
MAJURO WSO     MOCLDY    82  77  83 E5        29.75R HX  91

$$



USA.gov is the U.S. government's official web portal to all federal, state and local government web resources and services.